Weather History for Lakeview AWS, OR

Change the Weather History Date:

Saturday, February 16, 2013

  Actual Average Record
Temperature  
Mean Temperature 34 °F -  
Max Temperature 51 °F 40 °F 60 °F (1930)
Min Temperature 17 °F 24 °F -12 °F (1938)
Degree Days  
Heating Degree Days 31    
Moisture  
Dew Point 25 °F    
Average Humidity 76    
Maximum Humidity 100    
Minimum Humidity 41    
Precipitation  
Precipitation 0.00 in - - ()
Sea Level Pressure  
Sea Level Pressure 30.19 in    
Wind  
Wind Speed 5 mph (WNW)    
Max Wind Speed 14 mph    
Max Gust Speed -    
Visibility 10 miles    
Events      
Averages and records for this station are not official NWS values.
T = Trace of Precipitation, MM = Missing Value Source: NWS Daily Summary

Daily Weather History Graph

Daily Weather History Graph

Search for Another Location

Airport:

Trip Planner

Search our weather history database for the weather conditions in past years. The results will help you decide how hot, cold, wet, or windy it might be!

Date:

Astronomy

Feb. 16, 2013 Rise Set
Actual Time 6:55 AM PST 5:36 PM PST
Civil Twilight 6:27 AM PST 6:04 PM PST
Nautical Twilight 5:54 AM PST 6:37 PM PST
Astronomical Twilight 5:22 AM PST 7:09 PM PST
Moon 10:04 AM PST (2/16) No Moon Set
Length of Visible Light 11h 37m
Length of Day
10h 40m
Waxing Crescent, 40% of the Moon is Illuminated
Feb 16
Waxing Crescent
Feb 17
First Quarter
Feb 25
Full
Mar 4
Last Quarter
Mar 11
New

Hourly Weather History & Observations

Time (PST) Temp. Windchill Dew Point Humidity Pressure Visibility Wind Dir Wind Speed Gust Speed Precip Events Conditions
12:15 AM 23.0 °F 14.7 °F 21.2 °F 93% 30.33 in 10.0 mi NW 6.9 mph - N/A   Clear
12:35 AM 21.2 °F 11.7 °F 21.2 °F 100% 30.33 in 10.0 mi NNW 8.1 mph - N/A   Clear
12:55 AM 23.0 °F 13.1 °F 21.2 °F 93% 30.33 in 10.0 mi NNW 9.2 mph - N/A   Clear
1:15 AM 23.0 °F 13.9 °F 21.2 °F 93% 30.32 in 10.0 mi NNW 8.1 mph - N/A   Clear
1:35 AM 23.0 °F 14.7 °F 21.2 °F 93% 30.32 in 10.0 mi NNW 6.9 mph - N/A   Clear
1:55 AM 21.2 °F 12.6 °F 21.2 °F 100% 30.31 in 10.0 mi NNW 6.9 mph - N/A   Clear
2:15 AM 23.0 °F 13.9 °F 21.2 °F 93% 30.31 in 10.0 mi NNW 8.1 mph - N/A   Clear
2:35 AM 23.0 °F 13.9 °F 21.2 °F 93% 30.31 in 10.0 mi NNW 8.1 mph - N/A   Clear
2:55 AM 23.0 °F 15.8 °F 21.2 °F 93% 30.30 in 10.0 mi NNW 5.8 mph - N/A   Clear
3:15 AM 19.4 °F - 17.6 °F 93% 30.30 in 10.0 mi Calm Calm - N/A   Clear
3:35 AM 19.4 °F - 19.4 °F 100% 30.30 in 10.0 mi Calm Calm - N/A   Clear
3:55 AM 19.4 °F - 19.4 °F 100% 30.29 in 10.0 mi Calm Calm - N/A   Clear
4:15 AM 19.4 °F - 19.4 °F 100% 30.29 in 10.0 mi Calm Calm - N/A   Clear
4:35 AM 19.4 °F 14.3 °F 17.6 °F 93% 30.29 in 10.0 mi NW 3.5 mph - N/A   Clear
4:55 AM 19.4 °F - 17.6 °F 93% 30.29 in 10.0 mi Calm Calm - N/A   Clear
5:15 AM 19.4 °F 12.8 °F 19.4 °F 100% 30.29 in 10.0 mi North 4.6 mph - N/A   Clear
5:35 AM 19.4 °F 12.8 °F 17.6 °F 93% 30.28 in 10.0 mi NNE 4.6 mph - N/A   Clear
5:55 AM 19.4 °F 14.3 °F 17.6 °F 93% 30.28 in 10.0 mi WNW 3.5 mph - N/A   Clear
6:15 AM 19.4 °F 14.3 °F 17.6 °F 93% 30.27 in 10.0 mi NW 3.5 mph - N/A   Clear
6:35 AM 19.4 °F - 17.6 °F 93% 30.27 in 10.0 mi Calm Calm - N/A   Clear
6:55 AM 19.4 °F 12.8 °F 17.6 °F 93% 30.26 in 10.0 mi NNW 4.6 mph - N/A   Clear
7:15 AM 17.6 °F 12.3 °F 17.6 °F 100% 30.27 in 10.0 mi North 3.5 mph - N/A   Clear
7:35 AM 21.2 °F - 19.4 °F 93% 30.27 in 10.0 mi Calm Calm - N/A   Clear
7:55 AM 24.8 °F - 24.8 °F 100% 30.27 in 10.0 mi Calm Calm - N/A   Clear
8:15 AM 26.6 °F - 26.6 °F 100% 30.27 in 10.0 mi Calm Calm - N/A   Clear
8:35 AM 30.2 °F - 28.4 °F 93% 30.27 in 10.0 mi Calm Calm - N/A   Clear
8:55 AM 33.8 °F - 28.4 °F 81% 30.26 in 10.0 mi Calm Calm - N/A   Clear
9:15 AM 30.2 °F - 26.6 °F 86% 30.26 in 10.0 mi Calm Calm - N/A   Clear
9:35 AM 32.0 °F - 28.4 °F 87% 30.26 in 10.0 mi Calm Calm - N/A   Clear
9:55 AM 33.8 °F - 28.4 °F 81% 30.25 in 10.0 mi Calm Calm - N/A   Clear
10:15 AM 37.4 °F 34.9 °F 28.4 °F 70% 30.25 in 10.0 mi SSW 3.5 mph - N/A   Clear
10:35 AM 41.0 °F 38.0 °F 28.4 °F 61% 30.25 in 10.0 mi South 4.6 mph - N/A   Clear
10:55 AM 41.0 °F 38.0 °F 28.4 °F 61% 30.24 in 10.0 mi SSW 4.6 mph - N/A   Clear
11:15 AM 42.8 °F 40.1 °F 28.4 °F 57% 30.23 in 10.0 mi South 4.6 mph - N/A   Clear
11:35 AM 42.8 °F 40.1 °F 28.4 °F 57% 30.23 in 10.0 mi SSW 4.6 mph - N/A   Clear
11:55 AM 42.8 °F 39.3 °F 28.4 °F 57% 30.21 in 10.0 mi South 5.8 mph - N/A   Clear
12:15 PM 42.8 °F 39.3 °F 28.4 °F 57% 30.19 in 10.0 mi South 5.8 mph - N/A   Clear
12:35 PM 42.8 °F 38.6 °F 28.4 °F 57% 30.18 in 10.0 mi South 6.9 mph - N/A   Clear
12:55 PM 44.6 °F 41.4 °F 28.4 °F 53% 30.17 in 10.0 mi SSW 5.8 mph - N/A   Clear
1:15 PM 44.6 °F 40.7 °F 28.4 °F 53% 30.15 in 10.0 mi South 6.9 mph - N/A   Clear
1:35 PM 44.6 °F 40.7 °F 28.4 °F 53% 30.14 in 10.0 mi South 6.9 mph - N/A   Clear
1:55 PM 46.4 °F 41.1 °F 28.4 °F 50% 30.13 in 10.0 mi South 11.5 mph - N/A   Clear
2:15 PM 46.4 °F 41.5 °F 30.2 °F 53% 30.12 in 10.0 mi SSE 10.4 mph - N/A   Clear
2:35 PM 46.4 °F 41.9 °F 30.2 °F 53% 30.11 in 10.0 mi South 9.2 mph - N/A   Clear
2:55 PM 46.4 °F 41.9 °F 30.2 °F 53% 30.11 in 10.0 mi South 9.2 mph - N/A   Clear
3:15 PM 44.6 °F 40.7 °F 30.2 °F 57% 30.10 in 10.0 mi South 6.9 mph - N/A   Clear
3:35 PM 48.2 °F - 33.8 °F 58% 30.10 in 10.0 mi West 8.1 mph - N/A   Clear
3:55 PM 51.8 °F - 28.4 °F 41% 30.09 in 10.0 mi West 10.4 mph - N/A   Clear
4:15 PM 50.0 °F - 28.4 °F 43% 30.09 in 10.0 mi West 10.4 mph - N/A   Clear
4:35 PM 48.2 °F - 28.4 °F 46% 30.08 in 10.0 mi West 9.2 mph - N/A   Clear
4:55 PM 48.2 °F - 28.4 °F 46% 30.08 in 10.0 mi West 6.9 mph - N/A   Clear
5:15 PM 46.4 °F 44.3 °F 28.4 °F 50% 30.08 in 10.0 mi NW 4.6 mph - N/A   Clear
5:35 PM 44.6 °F 40.7 °F 24.8 °F 46% 30.07 in 10.0 mi WSW 6.9 mph - N/A   Clear
5:55 PM 39.2 °F 33.6 °F 26.6 °F 61% 30.07 in 10.0 mi SW 8.1 mph - N/A   Clear
6:15 PM 37.4 °F 30.8 °F 26.6 °F 65% 30.07 in 10.0 mi WSW 9.2 mph - N/A   Clear
6:35 PM 37.4 °F 30.8 °F 28.4 °F 70% 30.07 in 10.0 mi West 9.2 mph - N/A   Clear
6:55 PM 35.6 °F 28.6 °F 28.4 °F 75% 30.07 in 10.0 mi West 9.2 mph - N/A   Clear
7:15 PM 33.8 °F - 26.6 °F 75% 30.07 in 10.0 mi Calm Calm - N/A   Clear
7:35 PM 35.6 °F 30.7 °F 26.6 °F 70% 30.07 in 10.0 mi NE 5.8 mph - N/A   Clear
7:55 PM 30.2 °F 26.7 °F 26.6 °F 86% 30.07 in 10.0 mi ESE 3.5 mph - N/A   Clear
8:15 PM 32.0 °F 26.4 °F 26.6 °F 80% 30.07 in 10.0 mi SE 5.8 mph - N/A   Clear
8:35 PM 33.8 °F - 26.6 °F 75% 30.08 in 10.0 mi Calm Calm - N/A   Mostly Cloudy
8:55 PM 35.6 °F 28.0 °F 28.4 °F 75% 30.08 in 10.0 mi NNW 10.4 mph - N/A   Overcast
9:15 PM 39.2 °F 31.2 °F 28.4 °F 65% 30.09 in 10.0 mi NNW 13.8 mph - N/A   Overcast
9:35 PM 37.4 °F 32.1 °F 26.6 °F 65% 30.09 in 10.0 mi North 6.9 mph - N/A   Overcast
9:55 PM 33.8 °F 29.6 °F 26.6 °F 75% 30.09 in 10.0 mi North 4.6 mph - N/A   Mostly Cloudy
10:15 PM 33.8 °F 28.6 °F 26.6 °F 75% 30.09 in 10.0 mi North 5.8 mph - N/A   Scattered Clouds
10:35 PM 32.0 °F 24.8 °F 26.6 °F 80% 30.09 in 10.0 mi NNW 8.1 mph - N/A   Mostly Cloudy
10:55 PM 32.0 °F 25.6 °F 26.6 °F 80% 30.09 in 10.0 mi WNW 6.9 mph - N/A   Scattered Clouds
11:15 PM 30.2 °F 25.4 °F 24.8 °F 80% 30.09 in 10.0 mi WNW 4.6 mph - N/A   Clear
11:35 PM 28.4 °F 19.7 °F 24.8 °F 86% 30.09 in 10.0 mi WNW 9.2 mph - N/A   Clear
11:55 PM 28.4 °F 21.2 °F 24.8 °F 86% 30.09 in 10.0 mi NW 6.9 mph - N/A   Clear